Location: Sternwarte_Laufen
(47.9344°N, 12.9346°E)
Time: 18:01:05
(UTC+02:00)

ISS - Visible Passes

Search period start: 21 September 2018 00:00
Search period end: 01 October 2018 00:00
Orbit: 403 x 408 km, 51.6° (Epoch: 21 September)

Date Brightness Start Highest point End Pass type
(mag) Time Alt. Az. Time Alt. Az. Time Alt. Az.
21 Sep -1.0 21:17:44 10° SW 21:17:51 11° SW 21:17:51 11° SW visible
22 Sep -2.4 20:26:27 10° SSW 20:28:51 23° SSE 20:28:51 23° SSE visible
23 Sep -1.8 19:35:40 10° S 19:37:28 14° SE 19:39:17 10° ESE visible
23 Sep -2.6 21:10:13 10° WSW 21:12:20 36° SW 21:12:20 36° SW visible
24 Sep -3.5 20:18:31 10° SW 20:21:42 45° SSE 20:22:54 30° E visible
24 Sep -0.8 21:54:58 10° W 21:55:36 15° W 21:55:36 15° W visible
25 Sep -2.7 19:27:04 10° SSW 19:29:56 28° SE 19:32:49 10° E visible
25 Sep -3.5 21:02:58 10° WSW 21:06:00 64° NW 21:06:00 64° NW visible
26 Sep -3.9 20:11:02 10° WSW 20:14:20 85° SSE 20:16:18 22° ENE visible
26 Sep -1.0 21:47:52 10° WNW 21:48:59 19° WNW 21:48:59 19° WNW visible
27 Sep -3.1 20:55:49 10° W 20:59:02 48° N 20:59:10 48° N visible
28 Sep -3.4 20:03:46 10° W 20:07:02 60° NNW 20:09:17 18° ENE visible
28 Sep -1.1 21:40:42 10° WNW 21:41:57 20° WNW 21:41:57 20° WNW visible
29 Sep -2.9 20:48:39 10° WNW 20:51:49 41° N 20:52:00 41° N visible
30 Sep -3.0 19:56:33 10° W 19:59:45 45° N 20:02:01 17° ENE visible
30 Sep -1.2 21:33:23 10° WNW 21:34:41 21° WNW 21:34:41 21° WNW visible
